Volver al catálogo

DELTA 1 R/B(1)

ActivoLEO
NORAD 10144·ROCKET BODY·🇺🇸 United States

Lanzado Jul 14, 1977 desde Cape Canaveral Space Force Station

Loading…

Próximos Pases (próximas 24 horas)

TLE

ActualizadoSource: Space-Track

Época: Sep 14, 2026, 01:05 UTC

1 10144U 77065B   26257.04562839  .00000909  00000-0  23904-3 0  9993
2 10144  29.0657 282.6274 0839599 259.9042  90.5859 13.26092407374707

Sigue DELTA 1 R/B(1) en tiempo real con AllMySat

Download on the App Store